Espaço - Ciências - Fenômenos Naturais
Meteógrafos Informações Meteorológicas em tempo real

Aeroporto Castro Pinto

Histórico do Tempo
Temperatura atual: 27 graus 80 F    Umidade relativa: 88 %
Velocidade do vento: 08 nós 14 Km/h    Direção: 190 graus S
Ajuste do altímetro ..: 1014 HPA
Visibilidade: Ótima    Tempo presente: Não Disponível

Observação
Poucas nuvens a 2300 Pés.

Data Hora BRTTempo°CUmidadePressãoVentoVisib.
24/05 - 08:56   Não Disponível 27° 88% 1014 Sul/14 km/h 9999
24/05 - 07:56   Não Disponível 25° 100% 1014 Sul-sudoeste/9 km/h OK
24/05 - 06:56   Não Disponível 24° 100% 1013 Sul-sudoeste/7 km/h OK
24/05 - 05:56   Não Disponível 24° 100% 1012 Sul/7 km/h OK
24/05 - 04:56   Céu Limpo 24° 100% 1012 Sudoeste/7 km/h OK
24/05 - 03:56   Chovendo fraco 24° 100% 1012 Sul/7 km/h 8000
24/05 - 02:56   Poucas nuvens esparsas 24° 100% 1012 Sudoeste/7 km/h OK
24/05 - 01:56   Poucas nuvens esparsas 25° 94% 1012 Sudoeste/7 km/h OK
24/05 - 00:56   Poucas nuvens esparsas 25° 94% 1013 Oeste-sudoeste/5 km/h OK
23/05 - 23:56   Não Disponível 25° 94% 1013 Sul/5 km/h OK
23/05 - 22:56   Não Disponível 25° 94% 1014 Sul/7 km/h OK
23/05 - 21:56   Não Disponível 25° 94% 1014 Sul/7 km/h OK
23/05 - 20:56   Céu Limpo 26° 88% 1014 Sul-sudeste/10 km/h OK
23/05 - 19:56   Não Disponível 26° 88% 1013 Sudeste/10 km/h OK
23/05 - 18:56   Não Disponível 27° 83% 1013 Sul-sudeste/10 km/h 9999
23/05 - 17:56   Não Disponível 27° 83% 1012 Sul-sudeste/18 km/h OK
23/05 - 16:56   Não Disponível 29° 74% 1012 Sul-sudeste/21 km/h OK
23/05 - 15:56   Não Disponível 30° 70% 1011 Sul-sudeste/23 km/h OK
23/05 - 14:56   Não Disponível 30° 66% 1011 Sul-sudeste/23 km/h 9999
23/05 - 13:56   Poucas nuvens esparsas 31° 66% 1012 Sul-sudeste/21 km/h 9999
23/05 - 12:56   Parcialmente Nublado 31° 66% 1013 Sul-sudeste/19 km/h OK
23/05 - 11:56   Parcialmente Nublado 30° 70% 1014 Sudeste/19 km/h OK
23/05 - 10:56   Parcialmente Nublado 29° 74% 1014 Sudeste/14 km/h OK
23/05 - 09:56   Poucas nuvens esparsas 28° 79% 1014 Sul/14 km/h OK


Apolo11.com - Todos os direitos reservados - 2000 - 2019
Política de Privacidade   |     Termo de Uso e Licenciamento   |  -   Entre em Contato

"Política é a guerra sem sangue enquanto a guerra é a política com sangue" - Mao Tsé-Tung